Miscellaneous Local Product
Issued by NWS North Platte, NE

Home | Current Version | Previous Version | Graphics & Text | Print | Product List | Glossary On
Versions: 1 2 3 4 5 6 7 8 9 10 11 12 13 14 15 16 17 18 19 20 21 22 23 24 25 26 27 28 29 30 31 32 33 34 35 36 37 38 39 40 41 42 43 44 45 46 47 48 49 50
000
AXUS43 KLBF 191610
MISLBF


WESTERN AND NORTH CENTRAL NEBRASKA HOURLY WEATHER ROUNDUP
NATIONAL WEATHER SERVICE NORTH PLATTE NE
1100 AM CDT FRI SEP 19 2014

***STATIONS NOT REPORTING VARIABLES SUCH AS SKY/WEATHER OR
PRESSURE ARE PROVIDED BY THE NEBRASKA DEPARTMENT OF
ROADS...RAWS...AND APRS NETWORKS...AND ARE NOT UNDER
NATIONAL WEATHER SERVICE QUALITY CONTROL***

...OBSERVATIONS IN AND NEAR THE EASTERN PANHANDLE OF NEBRASKA...

CITY           SKY/WX    TMP DP  RH WIND       PRES   REMARKS
PINE RIDGE     MOSUNNY   72  57  59 W8        29.86S
CHADRON        MOSUNNY   76  54  46 SW5       29.86R
ALLIANCE       SUNNY     72  56  57 NW7       29.90S
SIDNEY         SUNNY     76  50  40 NW10      29.96S
WHITECLAY        N/A     74  55  51 CALM        N/A
RUSHVILLE        N/A     82  48  30 NE8         N/A
LISCO            N/A     76  54  45 W9          N/A
BIG SPRINGS      N/A     66  60  81 W3          N/A
$$

...OBSERVATIONS IN NORTH CENTRAL NEBRASKA...

CITY           SKY/WX    TMP DP  RH WIND       PRES   REMARKS
VALENTINE      MOSUNNY   74  61  63 W9        29.79S
THEDFORD       SUNNY     75  59  56 SW16      29.84F
AINSWORTH      MOSUNNY   75  60  59 SW15      29.80S
O`NEILL        SUNNY     76  64  67 SW13G24   29.79S
ORD            SUNNY     74  64  71 SW12      29.84F
BROKEN BOW     SUNNY     77  62  59 SW13      29.87S
SPRINGVIEW       N/A     76  64  65 W6G13       N/A
ROSE             N/A     77  67  71 S14         N/A
NEWPORT          N/A     76  64  65 S20         N/A
COMSTOCK         N/A     82  69  66 SW14        N/A
CHAMBERS         N/A     76  64  67 SW8G18      N/A
$$

...OBSERVATIONS IN SOUTHWEST NEBRASKA AND FAR NORTHEAST COLORADO...

CITY           SKY/WX    TMP DP  RH WIND       PRES   REMARKS
WRAY           FAIR      82  56  41 S14       29.93R
IMPERIAL       SUNNY     78  59  51 W8G17     29.92R
OGALLALA       SUNNY     73  61  65 W8        29.89F
NORTH PLATTE   SUNNY     72  61  68 NW8       29.89R
MCCOOK         SUNNY     79  63  57 SW8       29.89F
LEXINGTON      SUNNY     75  65  71 SW10G18   29.89R
PAXTON           N/A     62  61  96 CALM        N/A
SUTHERLAND       N/A     75  62  62 W8          N/A
BRADY            N/A     72  63  72 S3          N/A
GOTHENBURG       N/A     70  59  68 S7          N/A
CALLAWAY         N/A     67  65  94 SW12        N/A
$$

...SOME WEATHER OBSERVATIONS FROM AROUND THE REGION...

CITY           SKY/WX    TMP DP  RH WIND       PRES   REMARKS
DENVER         MOSUNNY   74  39  28 NW9       30.03R
LARAMIE        MOSUNNY   67  41  38 SW14      30.16F
CHEYENNE       SUNNY     75  42  30 NW13G21   30.07R
SCOTTSBLUFF    SUNNY     73  52  47 NW9       29.94R
RAPID CITY     CLOUDY    76  54  46 CALM      29.83S
PIERRE         PTSUNNY   72  63  73 W13       29.71R
WINNER         FAIR      76  62  62 W13       29.74R
SIOUX FALLS    PTSUNNY   73  63  70 S21G29    29.74F
OMAHA          PTSUNNY   70  63  78 S17       29.92S HAZE
GRAND ISLAND   SUNNY     77  63  61 S16       29.89S
KANSAS CITY    CLOUDY    65  64  97 S9        30.03S FOG
WICHITA        SUNNY     80  66  62 S8        29.99F
HAYS           SUNNY     79  63  57 SW15      29.97S
LIBERAL        SUNNY     77  63  61 SW16      30.04R
GOODLAND       SUNNY     77  58  51 SW15G22   29.97R
$$



USA.gov is the U.S. government's official web portal to all federal, state and local government web resources and services.